HYLAS 2

Last updated on Jan. 20, 2021, 6:22 a.m. UTC

1 38741U 12043B   21019.84025834  .00000160  00000-0  00000-0 0  9997
2 38741   0.0422 256.5415 0001777  37.2677 159.1255  1.00273390 30977
UTC
Height (km)
Latitude
Longitude
Inclination
Orbital Period
UTC large
Height (km)
Speed (km/s)
/
Latitude / Longitude
Inclination (degrees)
Orbital Period (minutes)
Azimuth
Elevation
Range (km)
Doppler Factor
iOS Compass Heading
iOS Angle

Next 30 passes for location: Hong Kong

Rise time Rise Azimuth (degrees) Set time Set Azimuth (degrees) Duration Max altitude (degrees)

No matching passes for this satellites